COSMOS 2251 DEB, 34553

Orbit data source: Space-Track

COSMOS 2251 DEB, 34553 is space debris in LEO originally from a launch on Wed, 16 Jun 1993 UTC launched from the Plesetsk Missile And Space Complex (PKMTR). The debris from Iridium 33, an American commercial communications satellite, has been tracked extensively since its accidental collision with the defunct Russian satellite Cosmos 2251 in 2009. This event, occurring at high speed in low Earth orbit (LEO), generated thousands of pieces of space debris, significantly increasing the risk of further collisions. The Iridium 33 debris cloud has impacted space traffic management and orbital debris mitigation strategies, making it a subject of ongoing study in space situational awareness.

Loading next visibility...
Identifier
34553, 1993-036UP
Orbit
LEO
Country
Flag of CISCIS
Related business
Manufacturer
Unknown
Mission
Spacecraft
Bus & Motor
Unknown
Mass
Unknown
Launch date (UTC)
1993-06-16 (33 years ago)
Launch vehicle
Unknown
Launch site
Plesetsk Missile And Space Complex (PKMTR)
Object type
Payload
Rocket body
Debris
Shape & HBR
Unknown shape, 0.1 m
Radar Cross Section
Small (<0.1 m²)

Expand to show TLE details & history
Last TLE update: 22 hours ago

TLE from 22 hours ago
0 COSMOS 2251 DEB
1 34553U 93036UP  26207.52994633  .00003850  00000-0  80812-3 0  9997
2 34553  74.0252 121.4578 0018850 149.4707 267.1376 14.59886151913894
Epoch: 2026-07-26T12:43Z
TLE epoch observation values (Epoch: 2026-07-26T12:43:07.362Z)
Latitude
53.30554°
Longitude
8.91271°
Altitude
702.607 km
Speed
7.51 km/s
True Right ascension
09h 35m 40s
True Declination
53° 08' 22"
Sunlit
Object was in daylight at epoch
Visualization orbit readout
Latitude
Unknown
Longitude
Unknown
Altitude
Unknown
Speed
Unknown
Apparent Right ascension
Unknown
Apparent Declination
Unknown
Sunlit
N/A
Visualization observer readout
Local Sidereal Time
00:02:05
Azimuth
Unknown
Elevation
Unknown
Doppler factor
Unknown
Orbital elements
Apogee altitude
704.466 km
Perigee altitude
677.815 km
Semi-major axis
7,069.277 km
Eccentricity
0.00189
Inclination
74.0252°
RAAN
121.4578°
Arg. of periapsis
149.4707°
True anomaly
266.92189°
Mean anomaly
267.1376°
Eccentric anomaly
267.02974°
Mean motion
3.65158 °/min
Orbital period
98.59 mins
BSTAR
0.00080812
Loading maneuver chart data...
Computing Atmospheric mass density...

Documentation

Showing up to 5 results
|